Weather History for Mackinac Island, MI

Change the Weather History Date:

Wednesday, October 31, 2012

  Actual Average Record
Temperature  
Mean Temperature 36 °F -  
Max Temperature 40 °F 45 °F 64 °F (2008)
Min Temperature 33 °F 35 °F 21 °F (1980)
Degree Days  
Heating Degree Days 28    
Moisture  
Dew Point 32 °F    
Average Humidity 84    
Maximum Humidity 92    
Minimum Humidity 72    
Precipitation  
Precipitation 0.00 in - - ()
Sea Level Pressure  
Sea Level Pressure 29.63 in    
Wind  
Wind Speed 16 mph (NNW)    
Max Wind Speed 20 mph    
Max Gust Speed 29 mph    
Visibility 10 miles    
Events Rain    
Averages and records for this station are not official NWS values.
T = Trace of Precipitation, MM = Missing Value Source: NWS Daily Summary

Daily Weather History Graph

Daily Weather History Graph

Search for Another Location

Airport:

Trip Planner

Search our weather history database for the weather conditions in past years. The results will help you decide how hot, cold, wet, or windy it might be!

Date:

Astronomy

Oct. 31, 2012 Rise Set
Actual Time 8:18 AM EDT 6:25 PM EDT
Civil Twilight 7:46 AM EDT 6:56 PM EDT
Nautical Twilight 7:11 AM EDT 7:31 PM EDT
Astronomical Twilight 6:37 AM EDT 8:06 PM EDT
Moon 7:29 PM EDT (10/31) 10:04 AM EDT (10/31)
Length of Visible Light 11h 09m
Length of Day
10h 07m
Full, 97% of the Moon is Illuminated
Oct 31
Full
Nov 6
Last Quarter
Nov 13
New
Nov 20
First Quarter
Nov 28
Full

Hourly Weather History & Observations

Time (EDT) Temp. Windchill Dew Point Humidity Pressure Visibility Wind Dir Wind Speed Gust Speed Precip Events Conditions
12:13 AM 33.6 °F 22.9 °F 31.6 °F 92% 29.67 in 10.0 mi North 17.3 mph 27.6 mph N/A   Overcast
1:13 AM 33.8 °F 23.5 °F 31.6 °F 92% 29.66 in 10.0 mi North 16.1 mph 26.5 mph N/A Rain Light Rain
1:33 AM 33.8 °F 23.5 °F 31.8 °F 92% 29.66 in 7.0 mi North 16.1 mph 24.2 mph N/A Rain Light Rain
1:54 AM 33.8 °F 23.5 °F 31.8 °F 92% 29.65 in 10.0 mi North 16.1 mph 24.2 mph N/A Rain Light Rain
2:13 AM 34.0 °F 24.2 °F 31.8 °F 92% 29.65 in 7.0 mi North 15.0 mph 24.2 mph N/A Rain Light Rain
2:33 AM 34.0 °F 22.7 °F 31.8 °F 92% 29.64 in 10.0 mi North 19.6 mph 27.6 mph N/A   Overcast
2:54 AM 34.3 °F 24.6 °F 32.0 °F 91% 29.64 in 10.0 mi North 15.0 mph 24.2 mph N/A   Overcast
3:13 AM 34.3 °F 23.9 °F 31.8 °F 90% 29.65 in 10.0 mi North 17.3 mph 26.5 mph N/A   Overcast
3:34 AM 34.7 °F 23.7 °F 32.0 °F 90% 29.64 in 10.0 mi North 19.6 mph 27.6 mph N/A   Overcast
3:54 AM 34.7 °F 24.3 °F 31.8 °F 89% 29.63 in 10.0 mi North 17.3 mph 26.5 mph N/A   Overcast
4:34 AM 35.4 °F 24.9 °F 31.5 °F 85% 29.63 in 10.0 mi North 18.4 mph 25.3 mph N/A   Overcast
4:54 AM 35.6 °F 24.8 °F 31.3 °F 84% 29.63 in 10.0 mi North 19.6 mph 27.6 mph N/A   Overcast
5:13 AM 35.6 °F 25.5 °F 30.9 °F 83% 29.63 in 10.0 mi North 17.3 mph 28.8 mph N/A   Overcast
5:34 AM 35.6 °F 25.2 °F 31.1 °F 84% 29.63 in 10.0 mi North 18.4 mph 26.5 mph N/A   Overcast
5:54 AM 35.8 °F 27.8 °F 31.3 °F 84% 29.63 in 10.0 mi North 11.5 mph 24.2 mph N/A   Overcast
6:13 AM 35.4 °F 25.6 °F 32.0 °F 87% 29.63 in 7.0 mi North 16.1 mph 24.2 mph N/A Rain Rain
6:34 AM 35.4 °F 25.6 °F 32.2 °F 88% 29.63 in 10.0 mi North 16.1 mph 25.3 mph N/A   Overcast
7:13 AM 35.6 °F 24.8 °F 32.0 °F 87% 29.62 in 10.0 mi North 19.6 mph 25.3 mph N/A   Overcast
7:34 AM 35.6 °F 25.2 °F 32.0 °F 87% 29.62 in 10.0 mi North 18.4 mph 26.5 mph N/A   Overcast
7:54 AM 35.6 °F 25.2 °F 32.0 °F 87% 29.63 in 10.0 mi North 18.4 mph 27.6 mph N/A   Overcast
8:13 AM 35.8 °F 25.1 °F 32.0 °F 86% 29.62 in 10.0 mi North 19.6 mph 26.5 mph N/A   Overcast
8:34 AM 35.6 °F 25.5 °F 32.0 °F 87% 29.62 in 10.0 mi North 17.3 mph 26.5 mph N/A   Overcast
8:54 AM 35.8 °F 26.5 °F 32.0 °F 86% 29.63 in 10.0 mi North 15.0 mph 26.5 mph N/A   Overcast
9:13 AM 36.0 °F 26.7 °F 32.0 °F 86% 29.63 in 10.0 mi North 15.0 mph 24.2 mph N/A   Overcast
9:34 AM 36.1 °F 27.7 °F 32.0 °F 85% 29.63 in 10.0 mi North 12.7 mph 24.2 mph N/A   Overcast
9:53 AM 36.5 °F 27.0 °F 31.8 °F 83% 29.63 in 10.0 mi North 16.1 mph 24.2 mph N/A   Overcast
10:13 AM 36.9 °F 27.5 °F 32.0 °F 83% 29.63 in 10.0 mi North 16.1 mph 25.3 mph N/A   Overcast
10:34 AM 37.4 °F 28.2 °F 32.0 °F 81% 29.63 in 10.0 mi North 16.1 mph 27.6 mph N/A   Overcast
10:53 AM 37.4 °F 27.8 °F 32.0 °F 81% 29.62 in 10.0 mi North 17.3 mph 25.3 mph N/A   Overcast
11:13 AM 38.3 °F 30.1 °F 31.6 °F 77% 29.62 in 10.0 mi North 13.8 mph 26.5 mph N/A   Overcast
11:34 AM 39.4 °F 31.1 °F 31.8 °F 74% 29.62 in 10.0 mi North 15.0 mph 24.2 mph N/A   Overcast
11:53 AM 39.7 °F 31.5 °F 32.0 °F 74% 29.62 in 10.0 mi North 15.0 mph 25.3 mph N/A   Overcast
12:18 PM 40.6 °F 33.0 °F 32.2 °F 72% 29.62 in 10.0 mi North 13.8 mph 23.0 mph N/A   Overcast
12:34 PM 40.5 °F 31.8 °F 32.0 °F 72% 29.62 in 10.0 mi North 17.3 mph 26.5 mph N/A   Overcast
12:53 PM 40.1 °F 31.3 °F 32.4 °F 74% 29.62 in 10.0 mi North 17.3 mph 25.3 mph N/A   Overcast
1:13 PM 39.9 °F 31.8 °F 32.2 °F 74% 29.62 in 10.0 mi NNW 15.0 mph 21.9 mph N/A   Overcast
1:34 PM 39.9 °F 31.4 °F 32.9 °F 76% 29.61 in 10.0 mi NNW 16.1 mph 23.0 mph N/A   Overcast
1:53 PM 40.1 °F 32.7 °F 33.1 °F 76% 29.61 in 10.0 mi NNW 12.7 mph 27.6 mph N/A   Overcast
2:19 PM 39.7 °F 31.9 °F 33.4 °F 78% 29.60 in 10.0 mi North 13.8 mph 23.0 mph N/A   Overcast
2:34 PM 39.2 °F 31.2 °F 33.1 °F 79% 29.60 in 10.0 mi NNW 13.8 mph 20.7 mph N/A   Overcast
2:58 PM 39.2 °F 31.2 °F 33.4 °F 80% 29.60 in 10.0 mi NNW 13.8 mph 21.9 mph N/A   Overcast
3:13 PM 39.0 °F 31.4 °F 33.6 °F 81% 29.60 in 10.0 mi NNW 12.7 mph 26.5 mph N/A   Overcast
3:53 PM 39.2 °F 30.8 °F 32.7 °F 78% 29.60 in 10.0 mi NNW 15.0 mph 24.2 mph N/A   Overcast
4:14 PM 38.8 °F 30.4 °F 32.4 °F 78% 29.61 in 10.0 mi NNW 15.0 mph 23.0 mph N/A   Overcast
4:34 PM 38.8 °F 32.1 °F 32.9 °F 79% 29.61 in 10.0 mi NNW 10.4 mph 25.3 mph N/A   Overcast
4:53 PM 38.3 °F 29.3 °F 33.8 °F 84% 29.61 in 10.0 mi NNW 16.1 mph 25.3 mph N/A   Overcast
5:14 PM 37.8 °F 30.2 °F 34.0 °F 86% 29.61 in 10.0 mi NNW 11.5 mph 23.0 mph N/A   Overcast
5:34 PM 37.8 °F 29.4 °F 33.6 °F 85% 29.62 in 10.0 mi NNW 13.8 mph 27.6 mph N/A   Overcast
5:53 PM 37.8 °F 29.4 °F 33.3 °F 84% 29.62 in 10.0 mi NNW 13.8 mph 25.3 mph N/A   Overcast
6:14 PM 37.4 °F 28.9 °F 33.3 °F 85% 29.63 in 10.0 mi NNW 13.8 mph 21.9 mph N/A   Overcast
6:34 PM 36.9 °F 28.2 °F 32.7 °F 85% 29.63 in 10.0 mi NNW 13.8 mph 27.6 mph N/A   Overcast
6:53 PM 36.9 °F 28.2 °F 32.7 °F 85% 29.63 in 10.0 mi NNW 13.8 mph 25.3 mph N/A   Overcast
7:14 PM 36.9 °F 28.7 °F 32.5 °F 84% 29.63 in 10.0 mi NNW 12.7 mph 21.9 mph N/A   Overcast
7:34 PM 36.9 °F 27.8 °F 32.4 °F 84% 29.64 in 10.0 mi NNW 15.0 mph 23.0 mph N/A   Overcast
7:53 PM 36.9 °F 27.5 °F 32.4 °F 84% 29.64 in 10.0 mi NW 16.1 mph 20.7 mph N/A   Overcast
8:14 PM 36.9 °F 28.7 °F 32.4 °F 84% 29.65 in 10.0 mi NW 12.7 mph 21.9 mph N/A   Overcast
8:34 PM 36.9 °F 27.1 °F 32.4 °F 84% 29.65 in 10.0 mi NW 17.3 mph 23.0 mph N/A   Overcast
8:53 PM 37.0 °F 28.1 °F 32.2 °F 83% 29.65 in 10.0 mi NW 15.0 mph 21.9 mph N/A   Overcast
9:14 PM 37.0 °F 28.5 °F 32.2 °F 83% 29.65 in 10.0 mi NNW 13.8 mph 24.2 mph N/A   Overcast
9:33 PM 37.0 °F 28.9 °F 32.4 °F 83% 29.65 in 10.0 mi NNW 12.7 mph 20.7 mph N/A   Overcast
10:14 PM 36.9 °F 28.7 °F 32.4 °F 84% 29.65 in 10.0 mi NW 12.7 mph 21.9 mph N/A   Overcast
10:33 PM 36.9 °F 29.1 °F 32.0 °F 83% 29.64 in 10.0 mi NW 11.5 mph 25.3 mph N/A   Overcast
10:53 PM 36.9 °F 28.7 °F 32.0 °F 83% 29.64 in 10.0 mi NW 12.7 mph 23.0 mph N/A   Overcast
11:14 PM 36.5 °F 27.4 °F 32.0 °F 84% 29.64 in 10.0 mi NW 15.0 mph 23.0 mph N/A   Overcast
11:33 PM 36.5 °F 27.8 °F 32.0 °F 84% 29.64 in 10.0 mi NW 13.8 mph 20.7 mph N/A   Overcast
11:53 PM 36.5 °F 27.8 °F 32.0 °F 84% 29.64 in 10.0 mi NW 13.8 mph 21.9 mph N/A   Overcast